Other Public Products
Issued by NWS Grand Forks, ND

Home | Current Version | Previous Version | Graphics & Text | Print | Product List | Glossary On
Versions: 1 2 3 4 5 6 7 8 9 10 11 12 13 14 15 16 17 18 19 20 21 22 23 24 25 26 27 28 29 30 31 32 33 34 35 36 37 38 39 40 41 42 43 44 45 46 47 48 49 50
000
FPUS83 KFGF 210831
OPUFGF
PRAIRIE TO PINES WEATHER ROUNDUP
NATIONAL WEATHER SERVICE EASTERN NORTH DAKOTA/GRAND FORKS ND
200 AM CST SUN DEC 21 2014

 **SATELLITE DATA USED TO AUGMENT SKY COVER AT AUTOMATED STATIONS**
 *****  WEATHER ACROSS EASTERN NORTH DAKOTA  *****

CITY           SKY/WX    TMP DP  RH WIND       PRES   REMARKS
GRAND FORKS    CLOUDY    30  28  93 S16G22    29.80F WCI  19
GRAND FORKS AF CLOUDY    28  28 100 SW13      29.79F WCI  18
GRAND CITY NWS   N/A     30 N/A N/A SW10        N/A  WCI  21
BUXTON           N/A     31  31  99 S9          N/A  WCI  23
DEVILS LAKE    CLOUDY    27  21  80 S7        29.70F WCI  19
FARGO          CLOUDY    32  29  88 S12       29.84F FOG     WCI  23
WAHPETON ARPT  CLOUDY    32  28  86 S13       29.87F WCI  22
$$

 *****  WEATHER ACROSS CENTRAL AND WESTERN NORTH DAKOTA  *****

CITY           SKY/WX    TMP DP  RH WIND       PRES   REMARKS
JAMESTOWN      FOG       25  22  88 S10       29.75F VSB 1   WCI  15
BISMARCK       CLEAR     15  13  91 NE3       29.75F
MINOT          CLEAR     28  23  81 SW12      29.67F WCI  18
MINOT AFB      CLEAR     22  22  99 W7        29.66F WCI  14
GARRISON         N/A     21  19  92 S3        29.69F
WILLISTON      CLEAR     17  15  92 CALM      29.65F
DICKINSON      PTCLDY    26  19  74 S3        29.66F
HETTINGER      MOCLDY    26  21  81 SE3       29.71F
$$

 *****  OTHER OBSERVATIONS NORTHEAST NORTH DAKOTA  *****

CITY           SKY/WX    TMP DP  RH WIND       PRES   REMARKS
WALHALLA         N/A     28  28 100 S7        29.74F WCI  21
LANGDON        FOG       27  25  93 N5        29.69F VSB 1/4 WCI  21
CAVALIER       CLOUDY    28  28 100 S10       29.76F FOG     WCI  19
GRAFTON        NOT AVBL
CANDO          PTSUNNY   27  27 100 S7        29.70F FOG     WCI  19
FORT TOTTEN    NOT AVBL
ROLLA          CLOUDY    25  25 100 MISG      29.67F
RUGBY          FAIR      27  27 100 S3        29.68F
 ***** THE ABOVE OBSERVATIONS ARE NON NWS ARE NOT QUALITY
        CONTROLLED AND MAY MIS-REPORT RAIN FOR SNOW...
$$

 *****  OTHER OBSERVATIONS SOUTHEAST NORTH DAKOTA *****

CITY           SKY/WX    TMP DP  RH WIND       PRES   REMARKS
COOPERSTOWN    NOT AVBL
VALLEY CITY    MIX PCPN  27  27 100 S15       29.77F VSB 1   WCI  15
OAKES            N/A     28  28 100 S16       29.81F WCI  17
GWINNER        CLOUDY    32  32 100 MISG      29.83F
BUFFALO        NOT AVBL
WYNDMERE         N/A     30  30 100 S6          N/A  WCI  24
 ***** THE ABOVE OBSERVATIONS ARE NON NWS ARE NOT QUALITY
       CONTROLLED AND MAY MIS-REPORT RAIN FOR SNOW...
$$

  *****  WEATHER ACROSS NORTHERN MINNESOTA  *****

CITY           SKY/WX    TMP DP  RH WIND       PRES   REMARKS
FLAG ISLAND    LGT SNOW  28  28 100 S17       29.84F VSB 1   WCI  16
WARROAD        CLOUDY    30  27  86 SE9       29.84F WCI  22
ROSEAU         CLOUDY    30  27  86 S9        29.82F FOG     WCI  22
HALLOCK        CLOUDY    32  30  93 CALM      29.78F FOG
THF RVR FALLS  CLOUDY    30  28  93 S18       29.82F WCI  18
HALSTAD          N/A     31  28  90 S21         N/A  WCI  19
FOSSTON        CLOUDY    27  27 100 S16       29.84F WCI  14
BAUDETTE       LGT SNOW  29  27  92 SE9       29.85F FOG     WCI  20
WASKISH        CLOUDY    28  28 100 CALM      29.87F
CROOKSTON      CLOUDY    30  30 100 S22G28    29.82F FOG     WCI  17
$$
  *****  WEATHER ACROSS CENTRAL AND WEST MINNESOTA  *****

CITY           SKY/WX    TMP DP  RH WIND       PRES   REMARKS
BEMIDJI        CLOUDY    28  27  96 S15       29.86F WCI  16
PARK RAPIDS    CLOUDY    29  28  96 S15G21    29.89S FOG     WCI  18
WADENA         CLOUDY    28  27  93 S14       29.89F FOG     WCI  17
DETROIT LAKES  CLOUDY    30  30 100 S17       29.86F FOG     WCI  18
MOORHEAD       CLOUDY    32  32 100 S15       29.86F FOG     WCI  22
FERGUS FALLS   CLOUDY    30  28  93 S16       29.90F FOG     WCI  19
ELBOW LAKE     CLOUDY    29  29  99 S17       29.88F FOG     WCI  17
MORRIS MN      CLOUDY    30  30 100 S13       29.89F FOG     WCI  20
STAPLES        CLOUDY    28  28 100 S13       29.91F FOG     WCI  18
WHEATON        CLOUDY    28  27  93 S9        29.90F FOG     WCI  20
$$
  *****  WEATHER ELSEWHERE ACROSS MINNESOTA  *****

CITY           SKY/WX    TMP DP  RH WIND       PRES   REMARKS
DULUTH         FLURRIES  30  26  85 S14G22    29.99F WCI  19
INTRNTL FALLS  LGT SNOW  28  26  92 S7        29.90F VSB 3/4 WCI  21
ELY            CLOUDY    28  27  93 S9G17     29.97S FOG     WCI  20
CLOQUET        CLOUDY    28  27  93 S8        29.99F WCI  20
BRAINERD       CLOUDY    28  27  96 S14G20    29.95F FOG     WCI  17
HIBBING        CLOUDY    29  25  85 S8        29.96F WCI  21
ALEXANDRIA     CLOUDY    30  28  92 S14G22    29.91F FOG     WCI  19
SAINT CLOUD    CLOUDY    32  28  85 S12       29.98F FOG     WCI  23
MINNEAPOLIS    CLOUDY    31  28  89 SE7       30.04F WCI  24
$$

  *****  WEATHER ACROSS SOUTH DAKOTA  *****

CITY           SKY/WX    TMP DP  RH WIND       PRES   REMARKS
SIOUX FALLS    FOG       31  30  96 S10       29.91F VSB 1/2 WCI  22
BROOKINGS      NOT AVBL
WATERTOWN      FOG       29  28  96 S10       29.85S VSB 1   WCI  20
HURON          CLOUDY    31  29  92 S10       29.84F FOG     WCI  22
SISSETON         N/A     31  29  92 SW14      29.86F WCI  21
ABERDEEN       CLOUDY    30  28  92 S10       29.84F WCI  21
MITCHELL       CLOUDY    32  31  96 S14       29.87F FOG     WCI  22
PIERRE         CLOUDY    22  20  92 NE6       29.78F WCI  14
MOBRIDGE       CLOUDY    26  24  92 SE9       29.74F WCI  17
RAPID CITY     CLEAR     28  23  81 S5        29.71F WCI  23
$$

  *****  SOME WEATHER IN NEARBY STATES *****

CITY           SKY/WX    TMP DP  RH WIND       PRES   REMARKS
GLASGOW MT     CLEAR     24  19  81 E13       29.57F WCI  12
GREAT FALLS MT CLOUDY    42  28  57 SW14G22   29.46F
CHEYENNE WY    CLEAR     33  20  58 W10       29.86F WCI  25
SCOTTSBLUFF NE CLEAR     28  23  81 CALM      29.83F
OMAHA NE       CLOUDY    37  35  92 S13       29.99F FOG
DES MOINES IA  CLOUDY    39  36  89 S12       30.06F FOG
DAVENPORT IA   CLOUDY    34  31  88 S8        30.17S FOG
CHICAGO IL     CLOUDY    32  26  78 S7        30.23S
EAU CLAIRE WI  CLOUDY    31  27  85 SE8       30.09F WCI  23
LA CROSSE WI   CLOUDY    33  28  81 SE8       30.13R
$$

  *****  SOME NATIONAL WEATHER *****

CITY           SKY/WX    TMP DP  RH WIND       PRES   REMARKS
LA GUARDIA NY  CLOUDY    32  23  69 N5        30.28S
RALEIGH NC     CLOUDY    38  34  85 CALM      30.28S FOG
ATLANTA GA     CLOUDY    47  44  90 E6        30.19S FOG
NEW ORLEANS LA CLOUDY    53  47  79 NE10      30.13F
OKLAHOMA CITY  CLOUDY    43  37  79 S8        30.10F
ALBUQUERQUE NM PTCLDY    34  26  72 W7        30.10R
SALT LAKE CITY CLOUDY    40  34  79 SE7       30.02F
LOS ANGELES CA PTCLDY    57  48  72 VRB5      30.15F
BOISE ID       LGT RAIN  40  37  89 SE12      29.87S
SEATTLE WA     MOCLDY    54  48  82 SW18G31   29.56R
$$

*** WEATHER ACROSS MANITOBA...SASKATCHEWAN AND ONTARIO ***
                ***ONTARIO***

CITY           SKY/WX    TMP DP  RH WIND       PRES   REMARKS
GERALDTON      CLOUDY    25  25 100 SE3       30.08S
THUNDER BAY    CLOUDY    34  28  80 S6        30.07
SIOUX LOOKOUT  FRZ DRZL  28  27  93 S9        29.91F WCI  20
TORONTO        CLOUDY    28  21  74 VRB2      30.28R
BIG TROUT LK   CLOUDY    25  23  93 S9        29.94F WCI  15
PICKLE LAKE    NOT AVBL
DRYDEN         FLURRIES  28  27  93 S15G22    29.90S WCI  17
KENORA         FRZ DRZL  28  27  93 S14G20    29.85  FOG     WCI  17
$$
                *** MANITOBA***

CITY           SKY/WX    TMP DP  RH WIND       PRES   REMARKS
BRANDON        FOG       25  25 100 E3        29.68F VSB 1
DAUPHIN        FLURRIES  25  23  93 SE6       29.68F WCI  18
ISLAND LAKE    FLURRIES  25  23  93 SE8       29.82F WCI  16
PILOT MOUND      N/A     25  25 100 CALM        N/A
THE PAS        FOG       19  19 100 E8        29.68  VSB 1   WCI   9
THOMPSON       FLURRIES  18  16  93 SW9       29.77  WCI   6
WINNIPEG       LGT SNOW  28  28 100 S16       29.77F FOG     WCI  17
LYNN LAKE      CLOUDY    14  14 100 S5        29.67F WCI   6
CHURCHILL      FLURRIES  19  18  93 SW13      29.79  WCI   7
GILLAM         FRZ DRZL  23  21  93 S7        29.82  WCI  15
$$
                ***SASKATCHEWAN***

CITY           SKY/WX    TMP DP  RH WIND       PRES   REMARKS
ESTEVAN        CLEAR     19  18  93 S8        29.63F WCI   9
KINDERSLEY     PTCLDY    19  18  93 SE9       29.42F WCI   9
LLOYDMINSTER   LGT SNOW  14  12  92 E12       29.42F VSB 1   WCI   0
PRINCE ALBERT  LGT SNOW  21  21 100 S5        29.56  VSB 1   WCI  15
REGINA         MOCLDY    14  14 100 SE8       29.58F FOG     WCI   3
YORKTON        CLOUDY    27  27 100 S6        29.61F FOG     WCI  20



USA.gov is the U.S. government's official web portal to all federal, state and local government web resources and services.